* Astronomy

Members Login
Username 
 
Password 
    Remember Me  
Post Info TOPIC: Asteroid 2012 BF14


L

Posts: 131433
Date:
Asteroid 2012 BF14
Permalink  
 


Orbital elements:
2012 BF14                                                Earth MOID = 0.0787 AU
Epoch 2012 Mar. 14.0 TT = JDT 2456000.5                 MPC
M  31.69853              (2000.0)            P               Q
n   0.29542772     Peri.  289.59918     +0.55382426     -0.82476947
a   2.2327249      Node   126.24295     +0.80711008     +0.49808782
e   0.5843712      Incl.    8.13784     +0.20457764     +0.26770103
P   3.34           H   23.3           G   0.15           U   8

MPEC 2012 - B42



__________________
Page 1 of 1  sorted by
 
Quick Reply

Please log in to post quick replies.



Create your own FREE Forum
Report Abuse
Powered by ActiveBoard